{"data":{"norad_id":61784,"intl_designator":"2024-199BB","name":"SAMSAT-IONOSPHERE (RS7*)","alt_names":[],"object_type":"PAYLOAD","status":"ACTIVE","operator":null,"country":"CIS","launch_date":"2024-11-04","launch_site_code":"VOSTO","launch_vehicle":null,"mission":null,"orbit_class":"UNKNOWN","rcs_meters":null,"size_class":null,"mass_kg":null,"dimensions":null,"purposes":["comms"],"wikipedia_slug":null,"has_3d_model":false,"image_url":null,"decayed_at":null,"tle_current":{"epoch":"2026-05-25T04:09:37.120320Z","epoch_age_seconds":60145,"freshness":"FRESH","line1":"1 61784U 24199BB  26145.17334630  .00043172  00000+0  63255-3 0  9996","line2":"2 61784  97.2987  20.5520 0008820  22.1377 338.0257 15.55403577133988","mean_motion":15.55403577,"eccentricity":0.000882,"inclination_deg":97.2987,"raan_deg":20.552,"arg_perigee_deg":22.1377,"mean_anomaly_deg":338.0257,"bstar":0.00063255,"rev_number":13398,"period_min":92.580473730002,"perigee_km":395.00055354869,"apogee_km":406.95891546836,"semimajor_km":6779.1167345085,"source":"CELESTRAK","updated_at":"2026-05-25T13:38:23.296130Z"}}}